Regional Weather Roundup
Issued by NWS Little Rock, AR

Home | Current Version | Previous Version | Graphics & Text | Print | Product List | Glossary On
Versions: 1 2 3 4 5 6 7 8 9 10 11 12 13 14 15 16 17 18 19 20 21 22 23 24 25 26 27 28 29 30 31 32 33 34 35 36 37 38 39 40 41 42 43 44 45 46 47 48 49 50
000
ASUS44 KLZK 240615
RWRLZK

WEATHER ROUNDUP FOR ARKANSAS
NATIONAL WEATHER SERVICE LITTLE ROCK AR
100 AM CDT TUE APR 24 2018

NOTE: "FAIR" INDICATES FEW OR NO CLOUDS BELOW 12,000 FEET WITH NO
SIGNIFICANT WEATHER AND/OR OBSTRUCTIONS TO VISIBILITY.

ARZ001-003-010-029-240700-
NORTHWEST ARKANSAS

CITY           SKY/WX    TMP DP  RH WIND       PRES   REMARKS
FAYETTEVILLE   CLEAR     48  45  89 CALM      30.01F
6HR MIN TEMP:  47; 6HR MAX TEMP:  67;

FORT SMITH     CLEAR     54  50  86 CALM      30.00S
6HR MIN TEMP:  54; 6HR MAX TEMP:  73;

HARRISON       CLEAR     55  50  83 W5        30.00S
6HR MIN TEMP:  54; 6HR MAX TEMP:  62;

BENTONVILLE    CLEAR     54  46  74 NE3       30.03F
6HR MIN TEMP:  54; 6HR MAX TEMP:  67;

ROGERS         CLEAR     53  44  71 CALM      30.02F
6HR MIN TEMP:  53; 6HR MAX TEMP:  66;

SILOAM SPGS    CLEAR     50  45  83 NW3       30.03R
6HR MIN TEMP:  49; 6HR MAX TEMP:  67;

HIGHFILL       CLEAR     50  44  80 CALM      30.02S
6HR MIN TEMP:  50; 6HR MAX TEMP:  68;

$$

ARZ004-005-016-240700-
NORTH CENTRAL ARKANSAS

CITY           SKY/WX    TMP DP  RH WIND       PRES   REMARKS
BATESVILLE     MOCLDY    54  54 100 W3        29.96S
6HR MIN TEMP:  53; 6HR MAX TEMP:  57; 6HR PCP: TRACE;

FLIPPIN        PTCLDY    56  51  84 NW3       29.99S
6HR MIN TEMP:  55; 6HR MAX TEMP:  63;

MTN HOME       PTCLDY    51  51 100 CALM      29.97S
6HR MIN TEMP:  50; 6HR MAX TEMP:  61;

$$

ARZ040-041-240700-
WEST CENTRAL ARKANSAS

CITY           SKY/WX    TMP DP  RH WIND       PRES   REMARKS
MENA           CLEAR     50  50 100 CALM      30.01R
MOUNT IDA      CLEAR     54  53  97 CALM      29.96F
6HR MIN TEMP:  54; 6HR MAX TEMP:  67;

$$

ARZ009-017-025-026-028-240700-
NORTHEAST ARKANSAS

CITY           SKY/WX    TMP DP  RH WIND       PRES   REMARKS
CORNING        CLOUDY    57  59 100 N8        29.95R
JONESBORO      CLOUDY    57  57 100 NW6       29.93S
6HR MIN TEMP:  52; 6HR MAX TEMP:  56;

NEWPORT        MOCLDY    55  54  96 N8        29.95S
6HR MIN TEMP:  55; 6HR MAX TEMP:  56; 6HR PCP: TRACE;

BLYTHEVILLE    FAIR      54  51  90 NW3       29.93S
6HR MIN TEMP:  54; 6HR MAX TEMP:  58;

$$

ARZ022-023-033-042-044-240700-
CENTRAL ARKANSAS

CITY           SKY/WX    TMP DP  RH WIND       PRES   REMARKS
LITTLE ROCK    PTCLDY    53  52  96 CALM      29.97R
6HR MIN TEMP:  52; 6HR MAX TEMP:  61;

N LITTLE ROCK    N/A     55  53  94 N3        29.94S
6HR MIN TEMP:  55; 6HR MAX TEMP:  60;

JACKSONVILLE   CLEAR     52  52  99 CALM      29.95S
6HR MIN TEMP:  52; 6HR MAX TEMP:  59; 6HR PCP: TRACE;

CONWAY         CLEAR     54  54 100 CALM      29.97R
SEARCY         FAIR      55  55 100 NW3       29.96S
6HR MIN TEMP:  55; 6HR MAX TEMP:  60;

HOT SPRINGS    CLEAR     55  54  96 SW5       29.98S
6HR MIN TEMP:  55; 6HR MAX TEMP:  69;

RUSSELLVILLE   CLEAR     50  50 100 CALM      29.97S
6HR MIN TEMP:  50; 6HR MAX TEMP:  68;

CLINTON        FAIR      50  50 100 CALM      29.98S
$$

ARZ036-240700-
EAST ARKANSAS

CITY           SKY/WX    TMP DP  RH WIND       PRES   REMARKS
WEST MEMPHIS   FAIR      54  54 100 CALM      29.91F
6HR MIN TEMP:  53; 6HR MAX TEMP:  56; 6HR PCP:  0.02;

$$

ARZ050-053-066-070-073-240700-
SOUTHWEST ARKANSAS

CITY           SKY/WX    TMP DP  RH WIND       PRES   REMARKS
ARKADELPHIA    FAIR      57  56  96 CALM      29.99R
6HR MIN TEMP:  56; 6HR MAX TEMP:  69;

CAMDEN         FAIR      57  54  88 CALM      29.98R
TEXARKANA      CLEAR     56  54  93 SW6       29.99S
6HR MIN TEMP:  56; 6HR MAX TEMP:  69;

EL DORADO      MOCLDY    59  58  96 CALM      29.98R
6HR MIN TEMP:  59; 6HR MAX TEMP:  65;

DE QUEEN       FOG       52  52 100 CALM      29.98S VSB 3/4
6HR MIN TEMP:  52; 6HR MAX TEMP:  69;

$$

ARZ056-057-069-240700-
SOUTHEAST ARKANSAS

CITY           SKY/WX    TMP DP  RH WIND       PRES   REMARKS
PINE BLUFF     FAIR      55  53  93 NW6       29.96S
6HR MIN TEMP:  55; 6HR MAX TEMP:  60;

STUTTGART      CLOUDY    58  55  90 N7        29.95
6HR MIN TEMP:  56; 6HR MAX TEMP:  58; 6HR PCP:  0.01;

MONTICELLO     FAIR      54  53  97 W3        29.96R
6HR MIN TEMP:  54; 6HR MAX TEMP:  64; 6HR PCP: TRACE;


$$





USA.gov is the U.S. government's official web portal to all federal, state and local government web resources and services.